Location: Kaikalui
(16.5250°N, 81.1500°E)
Time: 10:40:44
(UTC+00:00)

Cosmos 1151 Rocket - Pass Details

Date: 14 April 2026
Orbit: 585 x 605 km, 82.5° (Epoch: 20 May)

Event Time Altitude Azimuth Distance (km) Brightness Sun altitude
Rises 23:13:02 0° 182° (S) 2,805 6.3 -16.6°
Reaches altitude 10° 23:15:13 10° 181° (S) 1,903 5.4 -16.1°
Maximum altitude 23:19:25 80° 95° (E) 596 3.0 -15.1°
Drops below altitude 10° 23:23:37 10° 7° (N) 1,901 5.8 -14.1°
Sets 23:25:48 0° 6° (N) 2,801 6.7 -13.6°
